﻿測定場所 (Monitoring sites),日付 (Measurement date),時間 (Measurement time),線量率 最大値 (max) μGy/h,線量率 最小値 (min) μGy/h,線量率 平均値 (average) μGy/h,
江戸川 (Edogawa),2013-11-10,23:01～24:00,0.0866,0.0750,0.0822,
江戸川 (Edogawa),2013-11-10,22:01～23:00,0.0886,0.0756,0.0815,
江戸川 (Edogawa),2013-11-10,21:01～22:00,0.0865,0.0770,0.0817,
江戸川 (Edogawa),2013-11-10,20:01～21:00,0.0883,0.0729,0.0818,
江戸川 (Edogawa),2013-11-10,19:01～20:00,0.0880,0.0764,0.0824,
江戸川 (Edogawa),2013-11-10,18:01～19:00,0.0886,0.0768,0.0822,
江戸川 (Edogawa),2013-11-10,17:01～18:00,0.0878,0.0756,0.0822,
江戸川 (Edogawa),2013-11-10,16:01～17:00,0.0861,0.0746,0.0811,
江戸川 (Edogawa),2013-11-10,15:01～16:00,0.0862,0.0761,0.0812,
江戸川 (Edogawa),2013-11-10,14:01～15:00,0.0882,0.0747,0.0817,
江戸川 (Edogawa),2013-11-10,13:01～14:00,0.0855,0.0740,0.0811,
江戸川 (Edogawa),2013-11-10,12:01～13:00,0.0874,0.0744,0.0802,
江戸川 (Edogawa),2013-11-10,11:01～12:00,0.0873,0.0768,0.0814,
江戸川 (Edogawa),2013-11-10,10:01～11:00,0.0867,0.0770,0.0815,
江戸川 (Edogawa),2013-11-10,09:01～10:00,0.0865,0.0746,0.0802,
江戸川 (Edogawa),2013-11-10,08:01～09:00,0.0858,0.0734,0.0807,
江戸川 (Edogawa),2013-11-10,07:01～08:00,0.0889,0.0760,0.0815,
江戸川 (Edogawa),2013-11-10,06:01～07:00,0.0881,0.0732,0.0812,
江戸川 (Edogawa),2013-11-10,05:01～06:00,0.0868,0.0754,0.0805,
江戸川 (Edogawa),2013-11-10,04:01～05:00,0.0904,0.0762,0.0816,
江戸川 (Edogawa),2013-11-10,03:01～04:00,0.0868,0.0765,0.0817,
江戸川 (Edogawa),2013-11-10,02:01～03:00,0.0873,0.0740,0.0822,
江戸川 (Edogawa),2013-11-10,01:01～02:00,0.0878,0.0770,0.0820,
江戸川 (Edogawa),2013-11-10,00:01～01:00,0.0865,0.0744,0.0814,
江戸川 (Edogawa),2013-11-09,23:01～24:00,0.0864,0.0777,0.0817,
江戸川 (Edogawa),2013-11-09,22:01～23:00,0.0883,0.0753,0.0808,
江戸川 (Edogawa),2013-11-09,21:01～22:00,0.0892,0.0756,0.0814,
江戸川 (Edogawa),2013-11-09,20:01～21:00,0.0878,0.0760,0.0815,
江戸川 (Edogawa),2013-11-09,19:01～20:00,0.0861,0.0750,0.0812,
江戸川 (Edogawa),2013-11-09,18:01～19:00,0.0858,0.0748,0.0802,
江戸川 (Edogawa),2013-11-09,17:01～18:00,0.0864,0.0745,0.0806,
江戸川 (Edogawa),2013-11-09,16:01～17:00,0.0863,0.0764,0.0807,
江戸川 (Edogawa),2013-11-09,15:01～16:00,0.0867,0.0738,0.0808,
江戸川 (Edogawa),2013-11-09,14:01～15:00,0.0876,0.0741,0.0806,
江戸川 (Edogawa),2013-11-09,13:01～14:00,0.0857,0.0749,0.0802,
江戸川 (Edogawa),2013-11-09,12:01～13:00,0.0865,0.0765,0.0817,
江戸川 (Edogawa),2013-11-09,11:01～12:00,0.0870,0.0744,0.0815,
江戸川 (Edogawa),2013-11-09,10:01～11:00,0.0865,0.0772,0.0820,
江戸川 (Edogawa),2013-11-09,09:01～10:00,0.0863,0.0777,0.0820,
江戸川 (Edogawa),2013-11-09,08:01～09:00,0.0873,0.0753,0.0814,
江戸川 (Edogawa),2013-11-09,07:01～08:00,0.0868,0.0750,0.0817,
江戸川 (Edogawa),2013-11-09,06:01～07:00,0.0858,0.0755,0.0811,
江戸川 (Edogawa),2013-11-09,05:01～06:00,0.0875,0.0749,0.0810,
江戸川 (Edogawa),2013-11-09,04:01～05:00,0.0889,0.0744,0.0815,
江戸川 (Edogawa),2013-11-09,03:01～04:00,0.0869,0.0744,0.0814,
江戸川 (Edogawa),2013-11-09,02:01～03:00,0.0893,0.0741,0.0812,
江戸川 (Edogawa),2013-11-09,01:01～02:00,0.0880,0.0738,0.0813,
江戸川 (Edogawa),2013-11-09,00:01～01:00,0.0875,0.0766,0.0814,
江戸川 (Edogawa),2013-11-08,23:01～24:00,0.0905,0.0764,0.0815,
江戸川 (Edogawa),2013-11-08,22:01～23:00,0.0860,0.0760,0.0815,
江戸川 (Edogawa),2013-11-08,21:01～22:00,0.0868,0.0750,0.0808,
江戸川 (Edogawa),2013-11-08,20:01～21:00,0.0880,0.0752,0.0816,
江戸川 (Edogawa),2013-11-08,19:01～20:00,0.0892,0.0759,0.0814,
江戸川 (Edogawa),2013-11-08,18:01～19:00,0.0867,0.0760,0.0817,
江戸川 (Edogawa),2013-11-08,17:01～18:00,0.0898,0.0766,0.0817,
江戸川 (Edogawa),2013-11-08,16:01～17:00,0.0870,0.0746,0.0814,
江戸川 (Edogawa),2013-11-08,15:01～16:00,0.0856,0.0776,0.0809,
江戸川 (Edogawa),2013-11-08,14:01～15:00,0.0867,0.0762,0.0811,
江戸川 (Edogawa),2013-11-08,13:01～14:00,0.0849,0.0734,0.0806,
江戸川 (Edogawa),2013-11-08,12:01～13:00,0.0868,0.0762,0.0810,
江戸川 (Edogawa),2013-11-08,11:01～12:00,0.0872,0.0750,0.0813,
江戸川 (Edogawa),2013-11-08,10:01～11:00,0.0893,0.0769,0.0816,
江戸川 (Edogawa),2013-11-08,09:01～10:00,0.0858,0.0750,0.0804,
江戸川 (Edogawa),2013-11-08,08:01～09:00,0.0887,0.0745,0.0807,
江戸川 (Edogawa),2013-11-08,07:01～08:00,0.0858,0.0747,0.0806,
江戸川 (Edogawa),2013-11-08,06:01～07:00,0.0859,0.0739,0.0801,
江戸川 (Edogawa),2013-11-08,05:01～06:00,0.0853,0.0729,0.0798,
江戸川 (Edogawa),2013-11-08,04:01～05:00,0.0842,0.0765,0.0798,
江戸川 (Edogawa),2013-11-08,03:01～04:00,0.0849,0.0731,0.0795,
江戸川 (Edogawa),2013-11-08,02:01～03:00,0.0852,0.0764,0.0803,
江戸川 (Edogawa),2013-11-08,01:01～02:00,0.0863,0.0769,0.0809,
江戸川 (Edogawa),2013-11-08,00:01～01:00,0.0857,0.0758,0.0813,
江戸川 (Edogawa),2013-11-07,23:01～24:00,0.0866,0.0758,0.0811,
江戸川 (Edogawa),2013-11-07,22:01～23:00,0.0875,0.0744,0.0815,
江戸川 (Edogawa),2013-11-07,21:01～22:00,0.0852,0.0754,0.0806,
江戸川 (Edogawa),2013-11-07,20:01～21:00,0.0864,0.0757,0.0808,
江戸川 (Edogawa),2013-11-07,19:01～20:00,0.0873,0.0733,0.0808,
江戸川 (Edogawa),2013-11-07,18:01～19:00,0.0875,0.0752,0.0806,
江戸川 (Edogawa),2013-11-07,17:01～18:00,0.0879,0.0746,0.0805,
江戸川 (Edogawa),2013-11-07,16:01～17:00,0.0877,0.0760,0.0816,
江戸川 (Edogawa),2013-11-07,15:01～16:00,0.0881,0.0749,0.0818,
江戸川 (Edogawa),2013-11-07,14:01～15:00,0.0875,0.0751,0.0814,
江戸川 (Edogawa),2013-11-07,13:01～14:00,0.0865,0.0767,0.0816,
江戸川 (Edogawa),2013-11-07,12:01～13:00,0.0893,0.0754,0.0838,
江戸川 (Edogawa),2013-11-07,11:01～12:00,0.0945,0.0822,0.0861,
江戸川 (Edogawa),2013-11-07,10:01～11:00,0.0977,0.0827,0.0895,
江戸川 (Edogawa),2013-11-07,09:01～10:00,0.0983,0.0863,0.0918,
江戸川 (Edogawa),2013-11-07,08:01～09:00,0.0947,0.0842,0.0901,
江戸川 (Edogawa),2013-11-07,07:01～08:00,0.0966,0.0860,0.0904,
江戸川 (Edogawa),2013-11-07,06:01～07:00,0.0949,0.0845,0.0896,
江戸川 (Edogawa),2013-11-07,05:01～06:00,0.0928,0.0794,0.0851,
江戸川 (Edogawa),2013-11-07,04:01～05:00,0.0895,0.0785,0.0838,
江戸川 (Edogawa),2013-11-07,03:01～04:00,0.0896,0.0761,0.0824,
江戸川 (Edogawa),2013-11-07,02:01～03:00,0.0870,0.0750,0.0824,
江戸川 (Edogawa),2013-11-07,01:01～02:00,0.0863,0.0757,0.0816,
江戸川 (Edogawa),2013-11-07,00:01～01:00,0.0881,0.0739,0.0813,
江戸川 (Edogawa),2013-11-06,23:01～24:00,0.0870,0.0776,0.0819,
江戸川 (Edogawa),2013-11-06,22:01～23:00,0.0872,0.0752,0.0813,
江戸川 (Edogawa),2013-11-06,21:01～22:00,0.0871,0.0773,0.0814,
江戸川 (Edogawa),2013-11-06,20:01～21:00,0.0876,0.0761,0.0815,
江戸川 (Edogawa),2013-11-06,19:01～20:00,0.0865,0.0766,0.0813,
江戸川 (Edogawa),2013-11-06,18:01～19:00,0.0869,0.0749,0.0814,
江戸川 (Edogawa),2013-11-06,17:01～18:00,0.0858,0.0757,0.0812,
江戸川 (Edogawa),2013-11-06,16:01～17:00,0.0887,0.0743,0.0816,
江戸川 (Edogawa),2013-11-06,15:01～16:00,0.0870,0.0739,0.0810,
江戸川 (Edogawa),2013-11-06,14:01～15:00,0.0873,0.0760,0.0811,
江戸川 (Edogawa),2013-11-06,13:01～14:00,0.0878,0.0751,0.0819,
江戸川 (Edogawa),2013-11-06,12:01～13:00,0.0870,0.0760,0.0817,
江戸川 (Edogawa),2013-11-06,11:01～12:00,0.0903,0.0754,0.0818,
江戸川 (Edogawa),2013-11-06,10:01～11:00,0.0877,0.0763,0.0827,
江戸川 (Edogawa),2013-11-06,09:01～10:00,0.0930,0.0772,0.0824,
江戸川 (Edogawa),2013-11-06,08:01～09:00,0.0867,0.0758,0.0817,
江戸川 (Edogawa),2013-11-06,07:01～08:00,0.0870,0.0762,0.0822,
江戸川 (Edogawa),2013-11-06,06:01～07:00,0.0883,0.0768,0.0814,
江戸川 (Edogawa),2013-11-06,05:01～06:00,0.0885,0.0755,0.0815,
江戸川 (Edogawa),2013-11-06,04:01～05:00,0.0869,0.0770,0.0815,
江戸川 (Edogawa),2013-11-06,03:01～04:00,0.0879,0.0752,0.0808,
江戸川 (Edogawa),2013-11-06,02:01～03:00,0.0853,0.0750,0.0810,
江戸川 (Edogawa),2013-11-06,01:01～02:00,0.0863,0.0750,0.0807,
江戸川 (Edogawa),2013-11-06,00:01～01:00,0.0855,0.0754,0.0811,
江戸川 (Edogawa),2013-11-05,23:01～24:00,0.0869,0.0749,0.0804,
江戸川 (Edogawa),2013-11-05,22:01～23:00,0.0907,0.0757,0.0807,
江戸川 (Edogawa),2013-11-05,21:01～22:00,0.0848,0.0750,0.0802,
江戸川 (Edogawa),2013-11-05,20:01～21:00,0.0873,0.0740,0.0808,
江戸川 (Edogawa),2013-11-05,19:01～20:00,0.0865,0.0764,0.0809,
江戸川 (Edogawa),2013-11-05,18:01～19:00,0.0884,0.0761,0.0816,
江戸川 (Edogawa),2013-11-05,17:01～18:00,0.0885,0.0766,0.0810,
江戸川 (Edogawa),2013-11-05,16:01～17:00,0.0893,0.0744,0.0814,
江戸川 (Edogawa),2013-11-05,15:01～16:00,0.0861,0.0750,0.0814,
江戸川 (Edogawa),2013-11-05,14:01～15:00,0.0873,0.0769,0.0820,
江戸川 (Edogawa),2013-11-05,13:01～14:00,0.0865,0.0772,0.0822,
江戸川 (Edogawa),2013-11-05,12:01～13:00,0.0891,0.0769,0.0813,
江戸川 (Edogawa),2013-11-05,11:01～12:00,0.0866,0.0766,0.0818,
江戸川 (Edogawa),2013-11-05,10:01～11:00,0.0875,0.0766,0.0823,
江戸川 (Edogawa),2013-11-05,09:01～10:00,0.0895,0.0775,0.0818,
江戸川 (Edogawa),2013-11-05,08:01～09:00,0.0868,0.0753,0.0808,
江戸川 (Edogawa),2013-11-05,07:01～08:00,0.0874,0.0755,0.0803,
江戸川 (Edogawa),2013-11-05,06:01～07:00,0.0847,0.0749,0.0803,
江戸川 (Edogawa),2013-11-05,05:01～06:00,0.0854,0.0738,0.0800,
江戸川 (Edogawa),2013-11-05,04:01～05:00,0.0856,0.0753,0.0800,
江戸川 (Edogawa),2013-11-05,03:01～04:00,0.0854,0.0742,0.0798,
江戸川 (Edogawa),2013-11-05,02:01～03:00,0.0870,0.0744,0.0799,
江戸川 (Edogawa),2013-11-05,01:01～02:00,0.0868,0.0737,0.0793,
江戸川 (Edogawa),2013-11-05,00:01～01:00,0.0884,0.0744,0.0798,
江戸川 (Edogawa),2013-11-04,23:01～24:00,0.0851,0.0749,0.0796,
江戸川 (Edogawa),2013-11-04,22:01～23:00,0.0853,0.0731,0.0797,
江戸川 (Edogawa),2013-11-04,21:01～22:00,0.0861,0.0744,0.0799,
江戸川 (Edogawa),2013-11-04,20:01～21:00,0.0869,0.0747,0.0796,
江戸川 (Edogawa),2013-11-04,19:01～20:00,0.0876,0.0768,0.0823,
江戸川 (Edogawa),2013-11-04,18:01～19:00,0.0982,0.0822,0.0889,
江戸川 (Edogawa),2013-11-04,17:01～18:00,0.112,0.0929,0.102,
江戸川 (Edogawa),2013-11-04,16:01～17:00,0.107,0.0754,0.0875,
江戸川 (Edogawa),2013-11-04,15:01～16:00,0.0865,0.0759,0.0816,
江戸川 (Edogawa),2013-11-04,14:01～15:00,0.0898,0.0750,0.0816,
江戸川 (Edogawa),2013-11-04,13:01～14:00,0.0884,0.0763,0.0823,
江戸川 (Edogawa),2013-11-04,12:01～13:00,0.0900,0.0800,0.0846,
江戸川 (Edogawa),2013-11-04,11:01～12:00,0.0914,0.0795,0.0847,
江戸川 (Edogawa),2013-11-04,10:01～11:00,0.0867,0.0773,0.0823,
江戸川 (Edogawa),2013-11-04,09:01～10:00,0.0900,0.0773,0.0826,
江戸川 (Edogawa),2013-11-04,08:01～09:00,0.0919,0.0765,0.0843,
江戸川 (Edogawa),2013-11-04,07:01～08:00,0.0945,0.0801,0.0871,
江戸川 (Edogawa),2013-11-04,06:01～07:00,0.0917,0.0803,0.0857,
江戸川 (Edogawa),2013-11-04,05:01～06:00,0.0962,0.0810,0.0875,
江戸川 (Edogawa),2013-11-04,04:01～05:00,0.0988,0.0861,0.0910,
江戸川 (Edogawa),2013-11-04,03:01～04:00,0.0954,0.0838,0.0901,
江戸川 (Edogawa),2013-11-04,02:01～03:00,0.0900,0.0787,0.0849,
江戸川 (Edogawa),2013-11-04,01:01～02:00,0.0890,0.0768,0.0829,
江戸川 (Edogawa),2013-11-04,00:01～01:00,0.0886,0.0776,0.0833,
